TimeEET,TemperatureF,Dew PointF,Humidity,Sea Level PressureIn,VisibilityMPH,Wind Direction,Wind SpeedMPH,Gust SpeedMPH,PrecipitationIn,Events,Conditions,WindDirDegrees,DateUTC
12:20 AM,48.2,44.6,87,30.12,3.1,Calm,Calm,-,N/A,,Mist,0,2013-02-12 22:20:00
12:50 AM,46.4,42.8,87,30.12,3.1,SSW,3.5,-,N/A,,Mist,200,2013-02-12 22:50:00
1:20 AM,46.4,44.6,93,30.15,3.1,WNW,3.5,-,N/A,,Mist,290,2013-02-12 23:20:00
1:50 AM,46.4,44.6,93,30.15,3.1,NW,3.5,-,N/A,,Mist,320,2013-02-12 23:50:00
2:50 AM,44.6,41.0,87,30.15,3.1,NE,6.9,-,N/A,,Mist,40,2013-02-13 00:50:00
3:20 AM,46.4,44.6,93,30.15,3.1,NE,4.6,-,N/A,,Mist,50,2013-02-13 01:20:00
3:50 AM,44.6,41.0,87,30.12,3.1,NE,8.1,-,N/A,,Mist,40,2013-02-13 01:50:00
4:20 AM,44.6,42.8,93,30.15,3.1,North,4.6,-,N/A,,Mist,10,2013-02-13 02:20:00
4:50 AM,44.6,42.8,93,30.15,3.1,North,4.6,-,N/A,,Mist,10,2013-02-13 02:50:00
5:20 AM,46.4,42.8,87,30.15,3.1,North,4.6,-,N/A,,Mist,10,2013-02-13 03:20:00
5:50 AM,44.6,39.2,81,30.15,3.1,Calm,Calm,-,N/A,,Mist,0,2013-02-13 03:50:00
6:20 AM,44.6,41.0,87,30.15,3.1,Calm,Calm,-,N/A,,Mist,0,2013-02-13 04:20:00
6:50 AM,42.8,39.2,87,30.15,3.1,NNE,6.9,-,N/A,,Mist,30,2013-02-13 04:50:00
7:20 AM,46.4,42.8,87,30.18,3.1,NNE,5.8,-,N/A,,Mist,30,2013-02-13 05:20:00
7:50 AM,50.0,44.6,82,30.18,3.1,North,4.6,-,N/A,,Mist,10,2013-02-13 05:50:00
8:20 AM,53.6,41.0,62,30.18,-9999.0,NNE,5.8,-,N/A,,Clear,20,2013-02-13 06:20:00
8:50 AM,55.4,39.2,54,30.21,-9999.0,North,8.1,-,N/A,,Clear,10,2013-02-13 06:50:00
9:20 AM,57.2,39.2,51,30.21,-9999.0,NNE,6.9,-,N/A,,Clear,30,2013-02-13 07:20:00
9:50 AM,59.0,41.0,51,30.18,-9999.0,NNE,6.9,-,N/A,,Clear,30,2013-02-13 07:50:00
10:20 AM,59.0,41.0,51,30.18,-9999.0,NE,6.9,-,N/A,,Clear,40,2013-02-13 08:20:00
10:50 AM,60.8,42.8,52,30.18,-9999.0,NE,5.8,-,N/A,,Clear,50,2013-02-13 08:50:00
11:20 AM,62.6,42.8,48,30.18,-9999.0,East,4.6,-,N/A,,Clear,90,2013-02-13 09:20:00
11:50 AM,62.6,42.8,48,30.18,-9999.0,South,3.5,-,N/A,,Clear,190,2013-02-13 09:50:00
12:20 PM,64.4,41.0,42,30.15,-9999.0,ESE,5.8,-,N/A,,Clear,120,2013-02-13 10:20:00
12:50 PM,64.4,41.0,42,30.15,-9999.0,Variable,3.5,-,N/A,,Clear,0,2013-02-13 10:50:00
1:20 PM,64.4,41.0,42,30.15,-9999.0,Variable,3.5,-,N/A,,Clear,0,2013-02-13 11:20:00
1:50 PM,64.4,41.0,42,30.15,-9999.0,Variable,4.6,-,N/A,,Clear,0,2013-02-13 11:50:00
2:20 PM,64.4,41.0,42,30.12,-9999.0,Variable,3.5,-,N/A,,Clear,0,2013-02-13 12:20:00
2:50 PM,66.2,37.4,35,30.12,-9999.0,NE,5.8,-,N/A,,Clear,40,2013-02-13 12:50:00
3:20 PM,66.2,37.4,35,30.12,-9999.0,NNE,3.5,-,N/A,,Clear,20,2013-02-13 13:20:00
3:50 PM,64.4,35.6,34,30.12,-9999.0,NE,4.6,-,N/A,,Clear,40,2013-02-13 13:50:00
4:20 PM,64.4,35.6,34,30.12,4.3,Variable,2.3,-,N/A,,Unknown,0,2013-02-13 14:20:00
4:50 PM,60.8,39.2,45,30.12,3.1,NNE,4.6,-,N/A,,Haze,30,2013-02-13 14:50:00
5:20 PM,59.0,37.4,45,30.12,3.1,NNE,4.6,-,N/A,,Haze,20,2013-02-13 15:20:00
5:50 PM,59.0,39.2,48,30.12,3.1,North,3.5,-,N/A,,Haze,10,2013-02-13 15:50:00
6:20 PM,57.2,39.2,51,30.12,3.1,Variable,2.3,-,N/A,,Haze,0,2013-02-13 16:20:00
6:50 PM,55.4,41.0,58,30.12,3.1,Variable,2.3,-,N/A,,Haze,0,2013-02-13 16:50:00
7:20 PM,53.6,39.2,58,30.12,3.1,North,3.5,-,N/A,,Haze,350,2013-02-13 17:20:00
7:50 PM,53.6,41.0,62,30.15,3.1,Variable,2.3,-,N/A,,Haze,0,2013-02-13 17:50:00
8:20 PM,53.6,41.0,62,30.12,3.1,NNW,3.5,-,N/A,,Haze,340,2013-02-13 18:20:00
8:50 PM,53.6,41.0,62,30.15,3.1,North,3.5,-,N/A,,Haze,350,2013-02-13 18:50:00
9:20 PM,53.6,41.0,62,30.15,3.1,North,3.5,-,N/A,,Haze,350,2013-02-13 19:20:00
9:50 PM,51.8,41.0,67,30.15,3.1,North,3.5,-,N/A,,Haze,360,2013-02-13 19:50:00
10:20 PM,50.0,41.0,71,30.15,3.1,North,2.3,-,N/A,,Haze,360,2013-02-13 20:20:00
10:50 PM,48.2,39.2,71,30.12,3.1,North,2.3,-,N/A,,Mist,360,2013-02-13 20:50:00
11:20 PM,50.0,41.0,71,30.12,3.1,North,2.3,-,N/A,,Mist,350,2013-02-13 21:20:00
11:50 PM,50.0,41.0,71,30.12,3.1,North,3.5,-,N/A,,Mist,10,2013-02-13 21:50:00